CAPE
0 0 0 0 0 0 0 0 0 0 0 0 0 0 0 0 0 0 49 56 68 253 468 572 587 803 618 658 281 236 127 30 4 16 45 29 8 5 21 11 15 14 18 15 13 6 5 38 28
0 0 0 0 0 0 0 0 0 0 0 0 0 0 0 0 0 0 37 77 125 269 434 467 380 546 521 423 249 237 112 76 8 6 44 26 0 3 11 10 12 14 12 12 8 9 18 26 26
0 0 0 0 0 0 0 0 0 0 0 0 0 0 0 0 0 0 11 123 166 261 392 481 361 508 512 399 274 234 224 12 20 44 31 30 11 18 12 4 13 12 20 35 12 23 21 27 22
0 0 0 0 0 0 0 0 0 0 0 0 0 0 0 0 0 4 46 144 202 272 400 210 432 716 561 457 303 122 103 17 12 52 52 28 13 0 18 9 11 4 7 8 20 18 20 23 23
0 0 0 0 0 0 0 0 0 0 0 0 0 0 0 0 21 16 163 124 222 303 396 474 298 563 683 416 291 226 82 37 4 0 58 33 13 6 22 10 5 15 6 9 7 19 0 2 8
0 0 0 0 0 0 0 0 0 0 0 0 0 0 0 0 36 90 173 159 133 257 399 436 149 157 294 442 306 138 93 53 15 18 82 43 31 28 22 19 13 9 7 8 4 15 0 0 0
0 0 0 0 0 0 0 0 0 0 0 0 0 0 0 20 18 137 218 178 176 203 341 406 362 105 69 51 34 15 43 20 18 0 21 54 48 40 44 40 39 8 5 6 11 0 0 0 0
0 0 0 0 0 0 0 0 0 0 0 0 0 0 0 0 56 129 160 202 220 234 245 287 329 278 207 139 0 0 0 0 0 0 0 0 0 20 23 19 29 35 30 11 16 0 0 0 0
0 0 0 0 0 0 0 0 0 0 0 0 0 0 0 0 36 151 194 210 213 151 198 257 267 276 228 146 2 0 0 0 0 0 0 0 0 5 11 12 16 53 40 33 15 0 0 0 0
0 0 0 0 0 0 0 0 0 0 0 0 0 0 0 0 82 155 211 209 189 145 60 137 178 178 152 54 3 2 4 1 1 0 1 0 1 1 2 1 1 18 22 39 38 10 0 0 0
0 0 0 0 0 0 0 0 0 0 0 0 0 0 0 0 0 8 8 36 50 114 140 62 70 69 121 86 33 22 11 7 4 1 0 1 1 1 0 10 4 6 5 17 25 27 5 1 0
0 0 0 0 0 0 0 0 0 0 0 0 0 0 0 0 0 0 0 0 0 12 44 76 131 30 4 102 56 46 31 7 5 1 0 0 0 2 2 4 12 11 11 15 25 21 14 5 0
0 0 0 0 0 0 0 0 0 0 0 0 0 0 0 0 0 0 0 0 0 0 0 0 7 126 30 5 74 52 54 14 5 3 0 0 0 0 0 0 2 12 12 10 10 16 15 10 2
0 0 0 0 0 0 0 0 0 0 0 0 0 0 0 0 0 0 0 0 0 0 0 0 0 0 12 66 10 29 7 3 8 6 2 0 0 0 0 0 0 0 3 9 10 9 11 12 8
0 0 0 0 0 0 0 0 0 0 0 0 0 0 0 0 0 0 0 0 0 0 0 0 0 0 0 0 4 17 10 8 8 7 5 2 0 0 0 0 0 0 0 1 6 10 14 18 13
0 0 0 0 0 0 0 0 0 0 0 0 0 0 0 0 0 0 0 0 0 0 0 0 0 0 0 0 0 0 5 13 11 11 9 6 2 0 0 2 0 0 0 1 4 6 7 11 11
2 0 0 0 0 0 0 0 0 0 0 0 0 0 0 0 0 0 0 0 0 0 0 0 0 0 0 0 0 0 2 10 1 4 5 5 4 3 3 2 1 2 1 1 0 4 9 9 8
0 0 0 0 0 0 0 0 0 0 0 0 0 0 0 0 0 0 0 0 0 0 0 0 0 0 0 0 0 0 0 5 2 2 3 1 2 5 8 4 3 4 4 2 3 1 2 7 1
0 0 0 0 0 0 0 0 0 0 0 0 0 0 0 0 0 0 0 0 0 0 0 0 0 0 0 0 0 0 0 0 2 8 7 5 1 3 3 8 6 7 6 3 4 4 5 6 5
0 0 0 0 0 0 0 0 0 0 0 0 0 0 0 0 0 0 0 0 0 0 0 0 0 0 0 0 0 0 0 0 0 0 7 2 8 4 3 3 4 2 1 4 6 6 6 4 5
11 2 0 0 0 0 0 0 0 0 0 0 0 0 0 0 0 0 0 0 0 0 0 0 0 0 0 0 0 0 0 0 1 4 7 7 2 5 4 4 7 6 2 3 7 7 4 6 5
12 1 0 0 0 0 0 0 0 0 0 0 0 0 0 0 0 0 0 0 0 0 0 0 0 0 0 0 0 0 0 0 0 3 12 19 20 8 4 6 4 7 8 3 6 2 3 2 1
7 0 0 0 8 14 7 4 0 0 0 0 0 0 0 0 0 0 0 0 0 0 0 0 0 0 0 0 0 5 6 12 9 17 29 45 73 66 63 38 15 5 7 6 2 1 1 1 2
0 4 0 13 28 32 1 2 0 0 0 0 0 0 0 0 0 0 0 0 0 0 0 0 0 0 0 0 0 0 0 0 0 0 35 50 79 123 88 78 100 98 24 26 8 1 1 1 1
36 41 18 43 44 3 0 1 0 0 0 0 0 0 0 0 0 0 0 0 0 0 0 0 0 0 0 0 0 0 0 0 0 0 0 0 0 2 31 61 149 185 142 67 37 27 16 3 1
37 17 1 0 4 0 0 0 0 0 0 0 0 0 0 0 0 0 0 0 0 0 0 0 0 0 0 0 0 0 0 0 0 0 0 0 0 0 0 0 0 15 187 161 74 64 76 58 8
27 55 2 0 0 0 0 0 0 0 0 0 0 0 0 0 0 0 0 0 0 0 0 0 0 0 0 0 0 0 0 0 0 0 0 0 0 0 0 0 0 0 0 15 144 141 190 186 91
9 2 15 35 30 16 0 0 0 0 0 0 0 0 0 0 0 0 0 0 0 0 0 0 0 0 0 0 0 0 0 0 0 0 0 0 0 0 0 0 0 0 0 0 0 60 247 272 201
0 29 24 30 23 6 0 0 0 0 0 0 0 0 0 0 0 0 0 0 0 0 0 0 0 0 0 0 0 0 0 0 0 0 0 0 0 0 0 0 0 0 0 0 0 0 0 12 168
21 0 5 1 0 4 2 0 0 0 0 0 0 0 0 0 0 0 0 0 0 0 0 0 0 0 0 0 0 0 0 0 0 0 0 0 0 0 0 0 0 0 0 0 0 0 2 0 0
CIN
0 0 0 0 0 0 0 0 0 0 0 0 0 0 0 0 0 0 -94 -73 -56 0 0 0 -2 0 0 0 0 0 -2 -60 0 0 -3 -1 0 0 -1 -1 -1 -1 -1 -1 0 -1 -1 -5 -3
0 0 0 0 0 0 0 0 0 0 0 0 0 0 0 0 0 0 -75 -80 -59 -15 -1 0 -6 -4 -2 0 0 0 -16 -51 -37 0 -1 -3 0 -1 0 -1 -2 0 0 0 0 -1 -6 -8 -4
0 0 0 0 0 0 0 0 0 0 0 0 0 0 0 0 0 0 -25 -74 -46 -26 -6 -5 -10 -2 0 0 0 -1 -2 -1 -17 -77 -3 0 0 -1 -1 0 0 0 -1 -3 0 -5 -7 -8 -12
0 0 0 0 0 0 0 0 0 0 0 0 0 0 0 0 0 -38 -102 -64 -36 -26 -7 -34 -8 0 0 -1 -1 -2 -5 -2 -4 -4 -9 -2 0 0 0 -1 0 -1 -1 -1 0 -6 -9 -12 -18
0 0 0 0 0 0 0 0 0 0 0 0 0 0 0 0 -131 -146 -54 -48 -23 -23 -10 -3 -11 -1 0 0 -2 -1 -2 -8 -3 0 -1 -7 -4 -3 -2 -1 0 -1 0 -1 -2 -8 0 -5 -21
0 0 0 0 0 0 0 0 0 0 0 0 0 0 0 0 -103 -81 -50 -48 -38 -16 -4 -1 -41 -21 -3 -4 -1 -2 -4 -12 -1 -3 -35 -9 -6 -3 -2 0 -1 0 0 0 0 -7 0 0 0
0 0 0 0 0 0 0 0 0 0 0 0 0 0 0 -89 -141 -89 -51 -36 -31 -25 -10 -2 0 -30 -33 -32 -45 -50 -23 -53 -56 0 -4 -3 -5 -5 -4 -4 -2 0 0 0 -1 0 0 0 0
0 0 0 0 0 0 0 0 0 0 0 0 0 0 0 0 -126 -92 -69 -46 -37 -29 -22 -10 -4 -5 -13 -4 0 0 0 0 0 0 0 0 0 -20 -19 -28 -11 -1 -2 0 -1 0 0 0 0
0 0 0 0 0 0 0 0 0 0 0 0 0 0 0 0 -131 -79 -63 -56 -52 -64 -46 -18 -12 -7 -8 -24 0 0 0 0 0 0 0 0 0 -1 -16 -12 -19 -3 -4 -1 -2 0 0 0 0
0 0 0 0 0 0 0 0 0 0 0 0 0 0 0 0 -125 -61 -50 -40 -58 -58 -67 -44 -30 -21 -20 -34 0 0 0 0 0 0 0 0 0 0 -1 -1 -11 -20 -18 -8 -5 -1 0 0 0
0 0 0 0 0 0 0 0 0 0 0 0 0 0 0 0 0 -15 -11 -68 -52 -46 -53 -84 -70 -50 -21 -18 -33 -44 0 0 0 0 0 0 0 0 0 0 0 0 -10 0 -2 -1 0 0 0
0 0 0 0 0 0 0 0 0 0 0 0 0 0 0 0 0 0 0 0 0 -48 -103 -82 -62 -104 0 -26 -28 -23 -39 0 0 0 0 0 0 0 0 0 0 0 0 0 0 0 0 0 0
0 0 0 0 0 0 0 0 0 0 0 0 0 0 0 0 0 0 0 0 0 0 0 0 -20 -75 -68 -5 -63 -25 -19 -13 0 0 0 0 0 0 0 0 0 0 0 0 0 0 0 0 0
0 0 0 0 0 0 0 0 0 0 0 0 0 0 0 0 0 0 0 0 0 0 0 0 0 0 -34 -95 0 -91 0 0 0 0 0 0 0 0 0 0 0 0 0 0 0 0 0 0 0
0 0 0 0 0 0 0 0 0 0 0 0 0 0 0 0 0 0 0 0 0 0 0 0 0 0 0 0 -51 -129 0 0 0 0 0 0 0 0 0 0 0 0 0 0 0 0 0 0 0
0 0 0 0 0 0 0 0 0 0 0 0 0 0 0 0 0 0 0 0 0 0 0 0 0 0 0 0 0 0 0 0 0 0 0 0 0 0 0 0 0 0 0 0 0 0 0 0 0
0 0 0 0 0 0 0 0 0 0 0 0 0 0 0 0 0 0 0 0 0 0 0 0 0 0 0 0 0 0 0 0 -2 0 0 0 0 0 0 0 0 0 0 0 0 0 0 0 0
0 0 0 0 0 0 0 0 0 0 0 0 0 0 0 0 0 0 0 0 0 0 0 0 0 0 0 0 0 0 0 0 -1 -1 -1 0 0 0 0 0 0 0 0 0 0 0 0 0 0
0 0 0 0 0 0 0 0 0 0 0 0 0 0 0 0 0 0 0 0 0 0 0 0 0 0 0 0 0 0 0 0 0 0 0 -1 0 0 0 0 0 0 0 0 0 0 0 0 0
0 0 0 0 0 0 0 0 0 0 0 0 0 0 0 0 0 0 0 0 0 0 0 0 0 0 0 0 0 0 0 0 0 0 0 0 -1 0 0 0 0 0 0 0 0 0 0 0 0
0 0 0 0 0 0 0 0 0 0 0 0 0 0 0 0 0 0 0 0 0 0 0 0 0 0 0 0 0 0 0 0 0 0 0 0 -2 -1 0 0 0 -1 0 0 0 0 0 0 0
0 -2 0 0 0 0 0 0 0 0 0 0 0 0 0 0 0 0 0 0 0 0 0 0 0 0 0 0 0 0 0 0 0 0 0 0 0 0 0 0 0 0 0 0 0 0 0 0 0
0 0 0 0 0 0 0 0 0 0 0 0 0 0 0 0 0 0 0 0 0 0 0 0 0 0 0 0 0 0 0 0 0 -7 -97 -94 -86 -91 -81 -102 -138 -11 -10 0 0 0 0 0 0
0 -14 -3 -8 0 0 0 0 0 0 0 0 0 0 0 0 0 0 0 0 0 0 0 0 0 0 0 0 0 0 0 0 0 0 -58 -89 -66 -48 -55 -40 -31 -46 -96 -94 -31 0 0 0 0
-3 0 0 0 0 0 0 0 0 0 0 0 0 0 0 0 0 0 0 0 0 0 0 0 0 0 0 0 0 0 0 0 0 0 0 0 0 -57 -28 -115 -17 -8 -18 -56 -80 -83 -112 -94 0
0 0 0 0 0 0 0 0 0 0 0 0 0 0 0 0 0 0 0 0 0 0 0 0 0 0 0 0 0 0 0 0 0 0 0 0 0 0 0 0 0 -180 0 0 -17 -27 -18 -22 -121
0 0 -4 -1 0 0 0 0 0 0 0 0 0 0 0 0 0 0 0 0 0 0 0 0 0 0 0 0 0 0 0 0 0 0 0 0 0 0 0 0 0 0 0 -24 -4 0 -1 0 -7
-8 -4 0 0 0 0 0 0 0 0 0 0 0 0 0 0 0 0 0 0 0 0 0 0 0 0 0 0 0 0 0 0 0 0 0 0 0 0 0 0 0 0 0 0 0 -30 -3 -1 -2
0 -1 -6 -3 -10 0 0 0 0 0 0 0 0 0 0 0 0 0 0 0 0 0 0 0 0 0 0 0 0 0 0 0 0 0 0 0 0 0 0 0 0 0 0 0 0 0 0 -41 -10
0 0 -26 -1 0 -2 -1 0 0 0 0 0 0 0 0 0 0 0 0 0 0 0 0 0 0 0 0 0 0 0 0 0 0 0 0 0 0 0 0 0 0 0 0 0 0 0 0 0 0
Wind_Speed
17 8 2 2 3 2 6 5 2 3 3 3 3 2 8 6 6 5 3 5 5 8 8 10 8 11 11 11 10 9 9 10 7 6 10 11 10 8 9 9 9 8 10 11 11 9 7 9 10
12 5 1 1 1 5 7 3 5 6 6 3 3 2 2 6 2 4 8 3 10 10 9 8 6 9 11 10 9 8 8 7 8 7 7 9 9 8 9 9 7 8 8 9 9 9 4 7 9
6 4 2 2 1 6 7 4 6 6 2 1 3 4 2 4 2 5 4 9 10 10 9 9 9 9 10 10 9 6 7 7 6 8 9 7 6 6 9 7 6 6 7 8 10 5 6 7 6
5 1 3 3 11 6 6 5 3 3 3 3 2 4 4 4 2 1 5 10 11 9 8 10 9 10 11 10 8 8 8 8 7 5 8 9 7 6 5 7 7 6 5 6 9 4 6 6 5
3 0 3 6 8 5 4 3 1 4 3 5 5 5 4 2 3 2 8 8 9 9 8 10 8 8 8 9 9 8 7 9 7 6 7 10 8 8 6 6 6 6 7 7 5 5 3 3 4
1 3 5 6 7 5 4 3 1 4 3 4 2 2 4 2 0 4 6 8 7 7 7 7 8 7 8 8 8 7 7 7 8 6 8 9 9 8 7 7 6 5 5 6 4 2 1 0 2
3 3 4 8 8 5 3 2 2 4 3 6 3 2 4 4 2 5 6 5 6 6 7 7 8 9 6 6 6 7 7 7 8 6 8 9 9 9 8 8 6 7 7 5 5 4 4 2 1
2 1 6 2 8 4 2 2 2 2 5 1 3 4 5 4 3 5 5 5 5 6 7 7 8 8 9 9 7 6 6 6 8 8 7 8 7 8 9 8 8 8 8 7 5 5 5 4 3
1 2 5 5 7 6 3 3 2 1 2 2 3 3 3 3 4 5 6 6 6 6 7 8 8 9 9 8 6 7 7 6 6 7 7 7 7 9 9 8 5 9 9 8 8 7 6 3 3
2 3 3 2 4 6 4 2 2 3 5 3 3 4 4 5 4 5 7 6 9 9 8 9 10 10 9 7 9 9 8 8 9 9 9 8 8 8 7 7 8 9 10 10 10 8 5 5 6
2 3 6 5 3 3 3 3 1 2 3 2 4 4 3 2 3 5 6 8 8 7 8 11 11 11 11 9 7 5 5 6 6 10 9 8 7 6 7 6 7 8 9 7 9 8 8 8 6
5 4 5 6 4 3 3 2 2 3 2 2 2 3 3 1 2 6 7 8 7 9 11 11 12 11 12 9 8 8 7 7 7 8 11 8 6 7 7 6 7 8 7 9 8 6 8 9 9
6 4 4 4 3 3 3 5 3 6 5 1 3 3 3 3 5 7 8 10 10 11 11 11 12 13 12 12 9 9 9 8 10 9 11 9 9 9 8 8 8 8 8 8 9 9 9 9 10
4 3 2 1 4 3 5 4 5 5 3 3 3 4 3 4 5 8 9 10 10 12 13 11 11 13 12 12 13 10 10 11 10 10 11 14 10 9 9 9 9 9 9 9 9 9 9 9 10
5 7 1 5 5 5 4 11 11 10 5 7 4 4 4 8 10 12 12 12 12 12 14 13 12 10 13 14 13 11 11 10 10 10 13 14 13 13 12 9 9 9 9 12 10 11 10 10 10
5 4 7 7 8 4 6 12 2 7 8 8 7 7 8 12 13 13 11 12 13 13 13 13 11 12 12 13 11 10 10 10 11 10 10 14 15 16 13 11 11 11 9 9 10 10 10 11 11
6 4 11 3 7 4 12 7 5 6 5 8 11 11 12 14 15 12 12 11 11 11 12 12 12 13 13 12 10 11 11 9 9 9 10 14 15 15 14 11 11 12 10 10 10 10 11 11 11
10 8 6 7 7 7 9 15 8 11 11 14 13 13 15 15 15 12 11 10 10 10 10 11 10 12 11 9 9 8 9 8 9 10 10 13 10 14 13 13 14 12 11 11 11 14 12 11 11
7 8 7 5 5 5 13 14 15 13 13 15 16 16 15 15 11 7 7 8 9 9 10 11 11 10 7 7 7 8 9 8 10 10 12 11 10 11 15 12 13 12 12 13 13 13 14 11 10
7 7 6 2 4 4 9 14 15 19 15 18 18 17 14 7 5 4 7 9 10 11 12 11 11 10 8 6 6 7 6 7 8 8 10 13 11 11 11 12 12 13 10 15 14 14 11 11 10
14 14 10 8 3 6 10 15 9 8 8 12 14 12 6 2 1 5 7 9 10 12 12 12 12 12 8 9 7 7 6 7 7 7 8 9 11 11 11 12 11 11 9 9 12 13 13 10 9
16 10 6 5 3 5 3 8 7 8 12 8 9 10 5 6 5 5 6 9 10 11 11 12 13 13 12 9 5 7 6 7 6 6 7 7 10 12 12 12 12 11 9 10 11 10 12 12 11
6 11 11 8 8 10 12 5 5 4 14 16 13 5 7 7 7 7 6 6 8 10 10 11 13 15 15 13 12 5 5 5 5 6 8 9 9 10 12 12 12 11 9 11 12 12 12 11 11
11 8 4 3 2 10 13 12 8 12 12 12 11 7 10 8 7 7 6 6 7 9 10 11 13 15 15 14 14 13 11 9 7 9 8 7 6 6 8 12 12 11 11 11 11 13 14 12 13
14 14 4 6 7 9 0 14 17 7 13 13 9 11 10 8 6 5 6 7 8 11 12 11 13 14 14 14 14 14 12 11 9 9 7 9 8 8 9 11 11 10 12 12 11 12 13 13 12
18 14 6 8 8 5 3 13 6 12 13 3 3 12 11 9 7 6 6 7 8 9 11 11 12 13 14 13 13 12 13 8 8 9 7 7 7 8 11 11 12 13 15 12 11 10 11 12 12
9 15 12 2 2 3 8 8 11 10 13 11 11 13 11 9 7 6 5 6 7 8 9 10 11 11 12 12 11 12 12 12 11 11 10 8 9 10 12 12 14 13 12 13 12 10 12 12 12
10 10 6 6 9 9 11 15 14 10 16 17 12 13 11 9 8 6 5 5 5 6 7 8 10 10 12 11 10 10 11 11 11 10 12 12 11 11 12 14 14 14 15 15 13 10 11 12 11
9 13 8 5 9 9 8 10 10 18 16 16 15 17 15 12 9 7 6 5 5 5 7 7 10 10 11 10 10 10 10 11 11 10 11 12 12 13 12 13 13 13 15 15 14 16 12 14 14
18 17 19 10 9 11 13 16 7 7 11 12 14 16 14 12 10 7 6 4 3 5 6 7 9 9 10 11 11 11 11 12 12 12 13 13 13 12 13 13 12 14 13 15 14 16 17 15 15
Wind_Direction
320 323 279 222 201 104 90 80 4 86 107 51 79 358 57 24 0 38 66 131 140 142 140 161 148 146 147 136 138 139 140 131 118 138 134 129 117 120 125 117 117 110 118 118 113 102 84 72 100
320 319 248 87 184 144 94 82 78 64 89 101 115 122 94 75 51 96 139 133 152 148 151 153 146 153 142 142 146 149 140 141 139 135 130 121 132 147 132 120 130 116 124 126 127 123 72 69 82
313 326 328 51 93 103 110 100 90 100 113 31 130 24 32 54 82 139 98 152 157 155 156 143 153 148 147 151 156 161 154 154 169 167 147 148 145 142 136 139 128 128 130 134 138 113 90 66 58
327 169 122 66 100 81 86 97 85 132 119 49 30 85 118 21 347 4 146 160 162 157 164 143 158 156 157 158 170 169 169 164 171 196 161 144 153 159 153 156 146 143 144 150 152 106 77 58 33
356 310 93 101 90 96 87 43 46 56 77 42 341 89 68 88 13 147 152 167 165 166 169 164 166 164 163 170 170 167 166 173 172 208 198 160 160 170 171 172 170 159 169 164 169 72 54 52 20
44 301 139 131 115 106 92 15 4 66 48 60 56 80 70 15 151 144 165 173 171 177 176 174 173 177 175 171 169 172 177 174 165 195 168 170 167 179 203 185 188 190 201 186 187 183 229 76 48
24 356 92 132 125 133 91 353 51 85 109 59 6 71 75 102 66 142 167 174 182 194 191 190 189 189 197 198 192 198 198 186 179 171 171 178 192 184 199 185 214 198 217 213 196 223 247 266 14
21 342 143 151 161 115 74 101 47 24 76 54 329 55 80 53 111 145 165 187 203 204 213 209 206 206 208 205 201 204 208 207 199 189 176 180 201 210 201 192 208 195 198 220 213 235 252 264 301
304 206 164 150 170 124 114 155 91 47 126 75 30 31 35 85 147 168 182 205 213 217 227 226 224 223 227 230 212 211 214 218 219 208 195 183 213 195 200 208 208 189 194 203 213 230 240 256 278
263 225 133 80 119 128 103 83 92 190 140 112 117 97 82 148 177 201 219 224 220 228 223 235 231 229 230 230 230 224 219 220 213 221 217 221 219 216 214 199 197 210 200 206 206 225 227 233 243
158 206 146 155 130 127 95 105 15 173 143 114 124 87 70 157 208 241 256 261 265 242 228 226 226 233 234 232 230 226 225 227 225 220 219 224 229 217 219 218 205 215 205 224 212 213 232 241 256
189 150 162 147 148 146 155 115 183 269 93 43 119 39 330 318 301 298 291 288 278 258 256 244 229 225 231 236 227 234 228 223 225 226 221 214 217 227 236 233 226 220 217 225 233 237 238 242 244
210 165 153 123 155 182 150 214 252 242 185 188 241 269 232 302 306 294 296 296 291 278 268 254 243 232 225 230 235 238 235 226 230 226 222 219 222 219 222 229 230 229 231 228 226 233 237 238 244
158 142 117 128 179 229 229 211 192 221 235 202 225 222 249 283 294 290 279 283 288 292 286 279 252 244 240 233 232 231 232 235 227 227 224 220 224 226 225 223 227 231 233 235 238 237 237 241 242
126 159 215 223 223 235 195 243 226 231 228 251 233 263 298 291 288 278 286 296 291 284 286 287 286 259 248 243 240 232 232 230 232 232 227 223 221 226 229 231 228 228 232 239 237 240 245 249 244
170 199 215 202 224 207 215 246 138 200 199 215 253 259 272 278 277 283 299 297 298 301 289 285 276 261 251 248 245 241 238 236 234 231 230 232 228 226 227 231 232 229 225 229 237 238 242 244 246
195 194 214 217 204 183 205 257 200 187 186 273 275 283 282 276 279 292 317 317 308 298 293 286 277 265 260 252 250 246 247 237 239 238 234 228 230 229 231 232 234 228 228 228 228 237 243 249 248
199 210 200 202 176 214 210 249 229 226 272 270 274 274 270 274 284 324 327 332 323 312 299 291 285 280 273 261 252 248 245 239 238 236 235 235 229 231 230 236 235 227 228 231 227 229 228 236 248
218 216 208 177 183 219 241 257 269 265 261 265 262 258 259 270 308 331 6 1 349 352 334 319 301 290 276 252 244 241 245 233 240 236 238 234 228 223 233 239 241 230 227 233 233 233 234 233 236
196 199 201 196 181 243 271 268 271 266 254 245 255 261 269 278 302 23 19 13 10 5 359 351 332 312 291 259 250 251 256 246 253 249 236 242 230 222 231 242 244 242 233 240 239 236 235 238 222
224 236 244 257 327 234 295 280 256 260 267 248 248 252 267 273 78 36 35 31 19 18 9 4 0 354 333 296 270 254 250 259 260 253 253 249 237 230 226 235 245 243 227 230 237 237 223 233 221
224 207 204 188 270 257 48 298 253 255 272 253 232 230 228 153 116 73 45 37 29 21 16 17 17 16 5 359 281 264 268 271 281 280 277 263 247 243 239 235 237 244 238 230 237 233 230 228 237
211 163 197 219 246 282 249 252 242 264 252 251 248 203 156 137 125 107 77 51 36 24 21 24 28 28 23 25 17 352 314 310 307 304 296 281 267 252 250 237 239 239 237 236 237 237 230 231 231
146 116 89 135 227 251 231 216 232 214 238 231 244 172 152 144 120 102 84 66 48 34 27 28 28 31 27 29 30 30 27 19 22 6 346 323 300 288 262 257 253 244 239 235 236 235 236 231 234
173 171 181 198 204 245 199 213 256 207 248 237 196 171 157 143 129 102 74 56 40 32 28 26 25 28 22 24 28 27 22 26 30 15 2 7 3 353 345 312 276 267 253 243 239 240 239 236 234
199 188 190 203 212 229 150 227 245 224 230 200 183 176 155 144 130 100 64 54 42 33 29 24 26 24 19 19 18 20 20 18 18 16 7 9 359 353 346 335 344 319 280 259 250 248 247 245 239
180 216 215 301 80 245 210 238 266 232 224 208 157 169 163 153 146 119 93 62 46 36 30 24 17 18 18 15 12 16 16 16 8 5 3 359 0 350 349 348 343 333 334 315 266 256 253 246 243
204 164 178 200 223 232 234 244 241 193 214 210 197 191 177 158 148 133 112 83 58 42 30 29 20 18 11 7 8 6 8 8 4 1 359 355 350 354 348 348 348 342 338 333 326 310 277 262 252
185 203 215 215 223 230 253 241 236 228 203 204 207 196 182 172 169 163 143 108 69 48 35 29 18 13 10 6 1 3 3 3 357 357 356 350 344 349 349 348 344 345 339 335 335 326 314 320 289
217 211 203 203 200 242 258 257 170 219 226 227 204 183 176 173 168 162 150 142 87 43 32 27 15 11 5 0 359 1 360 360 358 356 353 349 348 348 343 348 345 341 342 336 334 331 327 334 326